Home > Weather > Svolvær > Past weeks

Flag for Norway Past Weather in Svolvær, Norway — Yesterday and Last 2 Weeks

Now
52 °F

Partly sunny.


Feels Like: 51 °F
Forecast: 49 / 53 °F
Wind: 3 mph from North

Location: Svolvaer / Helle

Current Time: Aug 24, 2016 at 10:55:38 AM

Latest Report: Aug 24, 2016 at 9:50 AM


Visibility: N/A

Pressure: 30.24 "Hg

Humidity: 72%

Dew Point: 43 °F

Location of SvolværLocation

Past Weather in Svolvær — Graph

°F

Svolvær Temperature Yesterday

Maximum temperature yesterday: 55 °F (at 10:50 AM)
Minimum temperature yesterday: 50 °F (at 4:20 AM)
Average temperature yesterday: 52 °F

High & Low Weather Summary for the Past Weeks

 TemperatureHumidityPressure
High70 °F (Aug 18, 4:50 PM)94% (Aug 21, 7:50 PM)30.27 "Hg (Aug 21, 7:50 PM)
Low45 °F (Aug 10, 4:20 AM)40% (Aug 18, 4:50 PM)29.30 "Hg (Aug 9, 8:50 AM)
Average55 °F71%29.97 "Hg
* Reported Aug 9 8:50 AM — Aug 24 8:50 AM, Svolvær, Weather by CustomWeather, © 2016

Note: Actual official high and low records may vary slightly from our data, if they occured in-between our weather recording intervals... More about our weather records

Advertising

Svolvær Weather History for the Previous 24 Hours

Scroll right to see more
 ConditionsComfort  
Time TempWeatherWind HumidityBarometerVisibility
8:50 AM
Wed, Aug 24
52 °FPartly sunny.5 mph72%30.27 "HgN/A
7:50 AM50 °FPartly sunny.7 mph76%30.27 "HgN/A
6:50 AM50 °FPartly sunny.7 mph76%30.27 "HgN/A
5:50 AM48 °FPassing clouds.7 mph82%30.27 "HgN/A
4:50 AM48 °FPassing clouds.6 mph76%30.27 "HgN/A
4:20 AM48 °FPassing clouds.7 mph76%30.27 "HgN/A
9:20 PM
Tue, Aug 23
50 °FPartly sunny.6 mph71%30.27 "HgN/A
8:50 PM50 °FPartly sunny.7 mph67%30.27 "HgN/A
7:50 PM52 °FPartly sunny.9 mph62%30.27 "HgN/A
6:50 PM52 °FPartly sunny.7 mph67%30.24 "HgN/A
5:50 PM52 °FPartly sunny.8 mph67%30.24 "HgN/A
4:50 PM52 °FPartly sunny.8 mph67%30.24 "HgN/A
3:50 PM52 °FPartly sunny.7 mph67%30.21 "HgN/A
2:50 PM52 °FPartly sunny.10 mph72%30.21 "HgN/A
1:50 PM54 °FPartly sunny.10 mph63%30.18 "HgN/A
12:50 PM54 °FPartly sunny.8 mph63%30.18 "HgN/A
11:50 AM54 °FPartly sunny.9 mph63%30.15 "HgN/A
10:50 AM55 °FScattered clouds.13 mph59%30.12 "HgN/A
Weather by CustomWeather, © 2016

See weather overviewHow to use our weather pages